Location: Kouchibouguac National Park
(46.8081°N, 64.9088°W)
Time: 20:38:41
(UTC-03:00)

Amateur Radio Satellites - All Passes

Search period start: 30 October 2014 20:08
Search period end: 31 October 2014 20:08
Location: Kouchibouguac National Park, 46.8081°N, 64.9088°W

Satellite Date Start Highest point End Downlink Frequencies (MHz)
Time Altitude Azimuth
UOSAT-12 30 Oct 20:26:49 20:30:14 19° 31° (NNE) 20:33:38 437.025 FM, 437.400 FM
Oscar 11 30 Oct 20:33:22 20:34:03 10° 57° (ENE) 20:34:44 145.825 FM, Beacon 2401.500 USB
KITSAT 1 30 Oct 21:14:34 21:22:26 58° 244° (WSW) 21:30:17 435.175 FM
SO-50 30 Oct 21:18:10 21:22:38 38° 242° (WSW) 21:27:07 436.795 FM
RS-15 30 Oct 21:18:23 21:28:29 45° 111° (ESE) 21:38:32 29.354 - 29.394 USB, Beacon 29.352 USB
HO-68 30 Oct 21:20:42 21:27:53 87° 253° (WSW) 21:35:08 435.675 MHz FM
UKube-1 30 Oct 21:29:43 21:33:46 39° 68° (ENE) 21:37:51 145.840 MHz, 145.915 MHz
STRAND 1 30 Oct 21:32:09 21:36:29 28° 297° (WNW) 21:40:48 ?
ZACube-1 30 Oct 21:37:52 21:41:15 21° 64° (ENE) 21:44:35 437.345 MHz
MaSat-1 30 Oct 21:59:17 22:01:01 13° 107° (ESE) 22:02:41 437.345 MHz
Oscar 11 30 Oct 22:05:10 22:09:29 80° 75° (ENE) 22:13:49 145.825 FM, Beacon 2401.500 USB
UOSAT-12 30 Oct 22:06:22 22:11:08 81° 52° (NE) 22:15:48 437.025 FM, 437.400 FM
FUNcube-1 30 Oct 22:19:45 22:24:07 51° 72° (ENE) 22:28:26 145.950 - 145.970 MHz USB
Oscar 10/S400 30 Oct 22:47:36 23:38:20 35° 215° (SW) 04:32:58 145.825 - 145.975 CW/USB, Beacon 145.810 USB
UKube-1 30 Oct 23:06:37 23:10:05 23° 266° (W) 23:13:36 145.840 MHz, 145.915 MHz
HO-68 30 Oct 23:11:59 23:16:35 18° 272° (W) 23:21:13 435.675 MHz FM
ZACube-1 30 Oct 23:12:59 23:17:22 47° 261° (W) 23:21:40 437.345 MHz
KITSAT 1 30 Oct 23:13:57 23:16:06 11° 264° (W) 23:18:14 435.175 FM
RS-15 30 Oct 23:29:36 23:40:26 64° 316° (NW) 23:51:23 29.354 - 29.394 USB, Beacon 29.352 USB
MaSat-1 30 Oct 23:32:21 23:36:08 58° 301° (WNW) 23:39:31 437.345 MHz
Oscar 11 30 Oct 23:45:02 23:46:14 11° 273° (W) 23:47:27 145.825 FM, Beacon 2401.500 USB
UOSAT-12 30 Oct 23:48:00 23:50:38 15° 251° (WSW) 23:53:15 437.025 FM, 437.400 FM
FUNcube-1 30 Oct 23:57:36 00:00:46 19° 268° (W) 00:03:54 145.950 - 145.970 MHz USB
JAS-1B 31 Oct 01:06:02 01:08:31 12° 85° (E) 01:11:06 435.800 - 435.900 CW/SSB
Oscar 16 31 Oct 01:32:28 01:34:37 13° 87° (E) 01:36:46 437.025 USB, Beacon 2401.1428
RS-15 31 Oct 01:45:54 01:55:25 32° 347° (NNW) 02:05:07 29.354 - 29.394 USB, Beacon 29.352 USB
Sapphire 31 Oct 01:46:46 01:48:31 12° 102° (ESE) 01:50:17 437.095 MHz 1200 baud AX-25 AFSK
Uribyol 2 31 Oct 02:05:24 02:06:15 10° 85° (E) 02:07:06 436.500 FM
PCSat 31 Oct 02:06:11 02:09:56 19° 106° (ESE) 02:13:42 145.825 MHz
AO-Echo 31 Oct 02:11:52 02:15:16 17° 89° (E) 02:18:38 ?
ITAMSAT 1 31 Oct 02:12:18 02:14:08 12° 86° (E) 02:15:58 435.822 SSB
Oscar 19 31 Oct 02:22:49 02:27:31 35° 96° (E) 02:32:10 437.125 CW, 437.150 USB
JAS-1B 31 Oct 02:53:12 03:00:07 63° 102° (ESE) 03:08:24 435.800 - 435.900 CW/SSB
AO-27 31 Oct 02:57:37 03:02:15 31° 95° (E) 03:06:50 436.795 MHz FM
Oscar 16 31 Oct 03:09:32 03:14:42 90° 297° (WNW) 03:19:50 437.025 USB, Beacon 2401.1428
Gurwin Techsat 1B 31 Oct 03:09:55 03:14:04 23° 92° (E) 03:18:12 435.225 FM
TMSAT-1 31 Oct 03:16:55 03:20:44 20° 90° (E) 03:24:32 436.925 FM
Sapphire 31 Oct 03:25:35 03:30:59 75° 120° (ESE) 03:36:25 437.095 MHz 1200 baud AX-25 AFSK
Uribyol 2 31 Oct 03:41:22 03:46:36 77° 104° (ESE) 03:51:47 436.500 FM
OPAL 31 Oct 03:41:27 03:42:49 11° 50° (NE) 03:44:11 ?
PCSat 31 Oct 03:47:22 03:52:46 72° 305° (NW) 03:58:13 145.825 MHz
ITAMSAT 1 31 Oct 03:49:10 03:54:26 84° 104° (ESE) 03:59:39 435.822 SSB
AO-Echo 31 Oct 03:49:15 03:54:35 74° 287° (WNW) 03:59:52 ?
RS-15 31 Oct 04:01:50 04:11:46 36° 21° (NNE) 04:21:58 29.354 - 29.394 USB, Beacon 29.352 USB
Oscar 19 31 Oct 04:02:15 04:06:49 34° 295° (WNW) 04:11:24 437.125 CW, 437.150 USB
AO-7 31 Oct 04:04:06 04:09:07 17° 87° (E) 04:14:07 29.400 - 29.500 MHz
AO-27 31 Oct 04:36:59 04:41:51 40° 294° (WNW) 04:46:40 436.795 MHz FM
JAS-1B 31 Oct 04:44:36 04:50:27 31° 299° (WNW) 04:57:12 435.800 - 435.900 CW/SSB
Gurwin Techsat 1B 31 Oct 04:49:11 04:54:22 55° 290° (WNW) 04:59:32 435.225 FM
Oscar 16 31 Oct 04:50:32 04:53:20 15° 304° (NW) 04:56:08 437.025 USB, Beacon 2401.1428
TMSAT-1 31 Oct 04:55:51 05:01:06 63° 289° (WNW) 05:06:19 436.925 FM
Sapphire 31 Oct 05:10:35 05:14:59 25° 321° (NW) 05:19:25 437.095 MHz 1200 baud AX-25 AFSK
OPAL 31 Oct 05:15:44 05:20:46 63° 69° (ENE) 05:25:46 ?
Uribyol 2 31 Oct 05:22:05 05:25:29 18° 302° (WNW) 05:28:52 436.500 FM
AO-Echo 31 Oct 05:30:03 05:32:27 13° 306° (NW) 05:34:51 ?
ITAMSAT 1 31 Oct 05:30:04 05:33:16 17° 303° (WNW) 05:36:27 435.822 SSB
PCSat 31 Oct 05:33:25 05:37:10 19° 327° (NNW) 05:40:55 145.825 MHz
STRAND 1 31 Oct 05:35:20 05:38:00 14° 55° (NE) 05:40:40 ?
Uosat F 31 Oct 05:40:15 05:45:14 55° 101° (E) 05:50:10 435.120 FM
JAS-2 31 Oct 05:53:36 06:00:35 34° 92° (E) 06:07:23 435.800 - 435.900 CW/SSB, 435.910 FM
AO-7 31 Oct 05:54:53 06:03:16 77° 107° (ESE) 06:11:37 29.400 - 29.500 MHz
Saudisat 1A 31 Oct 06:09:07 06:12:55 30° 116° (ESE) 06:16:46 436.775 MHz
RS-15 31 Oct 06:14:57 06:26:07 78° 51° (NE) 06:37:45 29.354 - 29.394 USB, Beacon 29.352 USB
TMSAT-1 31 Oct 06:38:36 06:40:00 11° 308° (NW) 06:41:24 436.925 FM
OPAL 31 Oct 06:56:31 07:00:04 19° 267° (W) 07:03:36 ?
Hamsat 31 Oct 07:09:49 07:14:02 71° 102° (ESE) 07:18:16 145.90 MHz
STRAND 1 31 Oct 07:11:16 07:16:25 85° 74° (ENE) 07:21:36 ?
Uosat F 31 Oct 07:19:46 07:23:40 23° 299° (WNW) 07:27:33 435.120 FM
JAS-2 31 Oct 07:38:14 07:45:58 62° 291° (WNW) 07:53:32 435.800 - 435.900 CW/SSB, 435.910 FM
MaSat-1 31 Oct 07:39:04 07:41:28 34° 56° (NE) 07:43:43 437.345 MHz
Saudisat 1A 31 Oct 07:48:14 07:52:23 40° 316° (NW) 07:56:34 436.775 MHz
AO-7 31 Oct 07:48:27 07:55:21 31° 308° (NW) 08:02:17 29.400 - 29.500 MHz
SO-67 31 Oct 08:17:04 08:20:28 53° 100° (E) 08:23:50 435.3500 MHz FM
RS-15 31 Oct 08:28:01 08:37:34 35° 254° (WSW) 08:47:28 29.354 - 29.394 USB, Beacon 29.352 USB
HO-68 31 Oct 08:47:18 08:51:07 15° 86° (E) 08:54:55 435.675 MHz FM
Hamsat 31 Oct 08:47:20 08:49:27 14° 300° (WNW) 08:51:34 145.90 MHz
STRAND 1 31 Oct 08:53:43 08:56:17 14° 272° (W) 08:58:51 ?
PCSat 31 Oct 09:07:22 09:09:11 12° 20° (NNE) 09:11:00 145.825 MHz
JAS-2 31 Oct 09:24:56 09:29:31 17° 312° (NW) 09:34:07 435.800 - 435.900 CW/SSB, 435.910 FM
Saudisat 1A 31 Oct 09:31:30 09:33:08 12° 338° (NNW) 09:34:48 436.775 MHz
SO-67 31 Oct 09:51:38 09:53:01 12° 297° (WNW) 09:54:23 435.3500 MHz FM
Oscar 11 31 Oct 09:51:53 09:53:31 12° 88° (E) 09:55:10 145.825 FM, Beacon 2401.500 USB
KITSAT 1 31 Oct 09:55:00 09:59:07 15° 99° (E) 10:03:14 435.175 FM
ISS 31 Oct 10:08:39 10:10:08 13° 133° (SE) 10:11:37 145.800 FM
Sapphire 31 Oct 10:27:52 10:32:18 25° 39° (NE) 10:36:43 437.095 MHz 1200 baud AX-25 AFSK
HO-68 31 Oct 10:32:46 10:40:01 76° 105° (ESE) 10:47:12 435.675 MHz FM
PCSat 31 Oct 10:49:24 10:54:21 34° 45° (NE) 10:59:15 145.825 MHz
UKube-1 31 Oct 10:50:44 10:54:59 47° 100° (E) 10:59:11 145.840 MHz, 145.915 MHz
ZACube-1 31 Oct 10:59:39 11:03:11 26° 94° (E) 11:06:40 437.345 MHz
Oscar 11 31 Oct 11:25:55 11:30:14 74° 286° (WNW) 11:34:32 145.825 FM, Beacon 2401.500 USB
SO-50 31 Oct 11:35:35 11:39:42 36° 118° (ESE) 11:43:57 436.795 FM
FUNcube-1 31 Oct 11:42:09 11:46:22 72° 102° (ESE) 11:50:30 145.950 - 145.970 MHz USB
ISS 31 Oct 11:43:00 11:46:18 72° 151° (SSE) 11:49:38 145.800 FM
KITSAT 1 31 Oct 11:45:03 11:53:03 70° 119° (ESE) 12:01:04 435.175 FM
JAS-1B 31 Oct 11:57:58 11:59:27 11° 47° (NE) 12:00:58 435.800 - 435.900 CW/SSB
Oscar 19 31 Oct 12:07:32 12:09:08 11° 53° (NE) 12:10:44 437.125 CW, 437.150 USB
Sapphire 31 Oct 12:10:51 12:16:18 75° 240° (WSW) 12:21:42 437.095 MHz 1200 baud AX-25 AFSK
HO-68 31 Oct 12:21:20 12:27:04 27° 306° (NW) 12:32:47 435.675 MHz FM
UOSAT-12 31 Oct 12:23:15 12:24:58 12° 107° (ESE) 12:26:41 437.025 FM, 437.400 FM
UKube-1 31 Oct 12:27:38 12:30:52 21° 298° (WNW) 12:34:05 145.840 MHz, 145.915 MHz
PCSat 31 Oct 12:32:44 12:37:56 48° 245° (WSW) 12:43:06 145.825 MHz
ZACube-1 31 Oct 12:35:52 12:39:38 32° 292° (WNW) 12:43:19 437.345 MHz
AO-27 31 Oct 12:43:47 12:45:06 11° 52° (NE) 12:46:25 436.795 MHz FM
Oscar 16 31 Oct 12:51:23 12:55:36 26° 63° (ENE) 12:59:50 437.025 USB, Beacon 2401.1428
Saudisat 1A 31 Oct 12:53:52 12:56:23 15° 27° (NNE) 12:58:53 436.775 MHz
SO-50 31 Oct 13:16:03 13:20:16 36° 318° (NW) 13:24:37 436.795 FM
ISS 31 Oct 13:20:02 13:23:11 38° 350° (N) 13:26:21 145.800 FM
FUNcube-1 31 Oct 13:20:10 13:22:11 13° 301° (WNW) 13:24:11 145.950 - 145.970 MHz USB
AO-7 31 Oct 13:21:40 13:22:41 10° 30° (NNE) 13:23:42 29.400 - 29.500 MHz
Uribyol 2 31 Oct 13:24:14 13:28:21 24° 61° (ENE) 13:32:28 436.500 FM
AO-Echo 31 Oct 13:27:16 13:31:32 28° 63° (ENE) 13:35:56 ?
ITAMSAT 1 31 Oct 13:31:58 13:36:14 26° 62° (ENE) 13:40:31 435.822 SSB
KITSAT 1 31 Oct 13:41:36 13:49:02 39° 322° (NW) 13:56:31 435.175 FM
Oscar 19 31 Oct 13:42:27 13:47:33 68° 72° (ENE) 13:52:39 437.125 CW, 437.150 USB
JAS-1B 31 Oct 13:43:17 13:48:54 64° 70° (ENE) 13:54:39 435.800 - 435.900 CW/SSB
Sapphire 31 Oct 13:57:00 13:58:46 12° 258° (WSW) 14:00:32 437.095 MHz 1200 baud AX-25 AFSK
UOSAT-12 31 Oct 13:59:40 14:04:19 84° 126° (SE) 14:09:05 437.025 FM, 437.400 FM
AO-27 31 Oct 14:18:27 14:23:36 63° 71° (ENE) 14:28:47 436.795 MHz FM
Oscar 16 31 Oct 14:29:46 14:34:43 47° 261° (W) 14:39:41 437.025 USB, Beacon 2401.1428
Saudisat 1A 31 Oct 14:32:28 14:36:52 59° 49° (NE) 14:41:14 436.775 MHz
Gurwin Techsat 1B 31 Oct 14:33:37 14:38:40 47° 68° (ENE) 14:43:44 435.225 FM
TMSAT-1 31 Oct 14:40:11 14:45:06 40° 67° (ENE) 14:50:03 436.925 FM
ISS 31 Oct 14:57:11 15:00:21 39° 10° (N) 15:03:31 145.800 FM
SO-50 31 Oct 15:00:20 15:02:12 12° 341° (NNW) 15:04:05 436.795 FM
Uribyol 2 31 Oct 15:02:22 15:07:29 55° 259° (W) 15:12:38 436.500 FM
AO-Echo 31 Oct 15:05:21 15:10:06 43° 262° (W) 15:15:03 ?
AO-7 31 Oct 15:05:48 15:12:59 35° 54° (NE) 15:20:10 29.400 - 29.500 MHz
ITAMSAT 1 31 Oct 15:10:24 15:15:27 49° 260° (W) 15:20:33 435.822 SSB
Uosat F 31 Oct 15:20:11 15:23:14 16° 57° (ENE) 15:26:18 435.120 FM
Oscar 19 31 Oct 15:24:02 15:27:23 17° 270° (W) 15:30:45 437.125 CW, 437.150 USB
JAS-1B 31 Oct 15:36:21 15:40:16 19° 270° (W) 15:44:13 435.800 - 435.900 CW/SSB
KITSAT 1 31 Oct 15:41:24 15:47:04 20° 350° (N) 15:52:45 435.175 FM
UOSAT-12 31 Oct 15:41:27 15:45:04 22° 327° (NNW) 15:48:44 437.025 FM, 437.400 FM
AO-27 31 Oct 15:59:50 16:03:33 20° 269° (W) 16:07:18 436.795 MHz FM
JAS-2 31 Oct 16:10:16 16:14:59 21° 52° (NE) 16:20:01 435.800 - 435.900 CW/SSB, 435.910 FM
Saudisat 1A 31 Oct 16:12:52 16:16:02 20° 247° (WSW) 16:19:12 436.775 MHz
Gurwin Techsat 1B 31 Oct 16:14:24 16:18:50 27° 267° (W) 16:23:18 435.225 FM
TMSAT-1 31 Oct 16:20:27 16:25:07 31° 265° (W) 16:29:49 436.925 FM
ISS 31 Oct 16:33:54 16:37:14 70° 210° (SSW) 16:40:33 145.800 FM
Uosat F 31 Oct 16:56:21 17:01:23 81° 256° (WSW) 17:06:28 435.120 FM
AO-7 31 Oct 16:57:04 17:05:16 67° 255° (WSW) 17:13:34 29.400 - 29.500 MHz
OPAL 31 Oct 17:25:06 17:26:45 12° 89° (E) 17:28:24 ?
KITSAT 1 31 Oct 17:39:31 17:45:48 24° 21° (NNE) 17:52:04 435.175 FM
JAS-2 31 Oct 17:52:30 17:58:54 86° 74° (ENE) 18:06:13 435.800 - 435.900 CW/SSB, 435.910 FM
Hamsat 31 Oct 18:05:41 18:09:51 72° 75° (ENE) 18:14:01 145.90 MHz
ISS 31 Oct 18:11:58 18:13:24 12° 227° (SW) 18:14:50 145.800 FM
SO-50 31 Oct 18:24:05 18:27:30 19° 31° (NNE) 18:30:57 436.795 FM
Uosat F 31 Oct 18:39:47 18:40:59 11° 274° (W) 18:42:10 435.120 FM
SO-67 31 Oct 18:52:30 18:55:27 27° 69° (ENE) 18:58:26 435.3500 MHz FM
AO-7 31 Oct 18:55:51 18:59:40 14° 276° (W) 19:03:30 29.400 - 29.500 MHz
OPAL 31 Oct 19:01:23 19:06:23 87° 107° (ESE) 19:11:20 ?
UOSAT-12 31 Oct 19:08:08 19:09:26 11° 16° (NNE) 19:10:44 437.025 FM, 437.400 FM
STRAND 1 31 Oct 19:19:38 19:23:42 23° 93° (E) 19:27:44 ?
HO-68 31 Oct 19:19:45 19:24:24 19° 49° (NE) 19:29:05 435.675 MHz FM
KITSAT 1 31 Oct 19:35:09 19:43:07 57° 47° (NE) 19:51:02 435.175 FM
JAS-2 31 Oct 19:40:37 19:45:02 19° 276° (W) 19:49:48 435.800 - 435.900 CW/SSB, 435.910 FM
Hamsat 31 Oct 19:44:51 19:46:18 12° 272° (W) 19:47:45 145.90 MHz
